User: anonymous
Location: Iola
(37.9240°N, 95.4000°W)
Time: 22:32:47
(UTC-05:00)
Language:

Meteor 2-10 Rocket - Orbit

View from above orbital plane
View from above orbital plane
View from above satellite
View from above satellite

Ground track
Ground track

The orbit data is extracted from the following two-line orbital elements,

1 14453U 83109B   14202.81375959  .00000069  00000-0  23203-4 0  1939
2 14453 081.1668 093.9439 0104085 253.6597 170.9242 14.24502625596412
Epoch (UTC): 21 July 2014 19:31:48
Eccentricity: 0.0104085
inclination: 81.1668°
perigee height: 735 km
apogee height: 885 km
right ascension of ascending node: 93.9439°
argument of perigee: 253.6597°
revolutions per day: 14.24502625
mean anomaly at epoch: 170.9242°
orbit number at epoch: 59641

The dashed part of the orbit path shows where the satellite is in the earth's shadow,  

DLR